200 serials | cardrecovery evaluation version registration key

Date Name Success Rate
2009-10-22 23:45:48 C++Builder Borland 6 Evaluation 6 Evaluation 0%
2011-09-08 10:22:52 C++Builder Borland 6 Evaluation 6 Evaluation 0%
2009-10-17 06:20:07 CardRecovery V3.60 59%
2009-10-22 23:45:49 CardRecovery V3.60 46%
2012-12-12 05:13:23 CardRecovery 54%
2011-09-08 10:23:58 CardRecovery 4.10 build 1220 68%
2012-12-12 05:13:29 CardRecovery v5.30 build 1206 33%
2012-12-12 05:13:25 Cardrecovery v 5.20 build 0212-proxy 43%
2012-12-12 05:13:31 CardRecovery v5.30 build 1206 Rai Lally 62%
2009-10-22 23:49:34 Qt/Windows Evaluation 0%
2009-10-22 23:49:34 Qt/Windows Evaluation 3.2.0 0%
2011-09-08 10:32:08 Creator Evaluation 1.0 39%
2011-09-08 10:32:08 Creator Evaluation 1.2 0%
2011-09-08 10:32:08 Creator Evaluation v1.0 0%
2011-09-08 10:32:08 Creator Evaluation v1.2 0%
2011-09-08 12:37:00 Qt/Windows Evaluation 0%
2011-09-08 12:37:00 Qt/Windows Evaluation v3.2.0 0%
2009-10-22 23:44:51 Borland C++ Builder 6 Evaluation 0%
2011-09-08 10:21:06 Borland C Builder 6 Evaluation 0%
2011-09-08 10:21:06 Borland C++ Builder 6 Evaluation 0%
2011-09-08 10:44:39 DPlot Evaluation Ersio v1.9.7.2 0%
2011-09-08 10:44:39 DPlot Evaluation Ersio v1.9.7.5 0%
2011-09-08 10:44:39 DPlot evaluation ersio v1.97 0%
2009-10-22 23:50:36 Windows Server 2003 SBS Evaluation PL 0%
2011-09-08 12:55:34 Trend Trak v4.0 Win95 evaluation 0%
2011-09-08 12:58:48 Stereoscopic Player (Evaluation License) 1.5.3 0%
2011-09-08 12:58:48 Stereoscopic Player (Evaluation License) 1.6.2 0%
2011-09-08 13:18:26 Windows Server 2003 Evaluation PL 0%
2012-12-12 19:31:54 Microsoft Office 2010(Evaluation Key) 67%
2012-12-12 19:43:06 Microsoft windows 8 enterprise Evaluation 67%
2009-10-22 23:45:56 Crystal Reports 2008 (30 Days Evaluation) 53%
2009-10-22 23:48:49 Microsoft Windows Server 2003 Evaluation PL 0%
2009-10-22 23:50:36 Windows 7 Beta 32-bit Product Key Evaluation Copu 70%
2011-09-08 11:31:58 Microsoft Windows Server 2003 Evaluation PL 0%
2011-09-08 13:18:02 Windows 2000 Advanced Server Evaluation 0%
2011-09-08 10:49:22 EMISyS - Evaluation and Management Information System Software 0%
2011-09-08 13:18:26 Windows Server 2003 Enterprise Edition with SP1- 180-day Evaluation (English) 0%
2011-09-08 10:42:09 DAS Registration 1.5.2 66%
2011-09-08 10:42:09 DAS Registration For CW5 0%
2011-09-08 10:42:09 DAS Registration v1.5.2 0%
2009-10-17 06:27:02 Lazarus Registration DLL V1.0 59%
2009-10-22 23:48:48 MemoriesonTV Registration 0%
2009-10-22 23:49:42 Registration Wizard 40%
2011-09-08 10:06:47 AnetHelpTool v4.02 Registration 52%
2011-09-08 10:22:13 ByeLines Registration 60%
2011-09-08 10:57:42 Ftgate Registration 63%
2011-09-08 11:15:16 Infodex v2.10 Registration 0%
2011-09-08 11:25:08 Lazarus Registration DLL v1.0 0%
2011-09-08 11:27:46 Mac Opener v3.0 Registration 57%
2011-09-08 11:32:59 mIRC v4.5+ Registration 60%
2011-09-08 11:32:59 mIRC v4.52 Registration 60%
2011-09-08 12:37:02 Quant v2.0 Registration 0%
2011-09-08 12:41:14 Registration Suite 1.0 60%
2011-09-08 12:41:14 Registration Suite v1.0 60%
2011-09-08 12:41:14 Registration Wizard Pro 5.01 46%
2011-09-08 12:41:14 Registration Wizard Pro v5.01 60%
2011-09-08 13:18:59 WinHacker 95 v2.02 Registration 57%
2012-12-13 05:12:00 Registration Key : 526EFEF086E09600449E667EA2DAE8E2E6D642BC 83%
2009-10-22 23:27:21 Ardamax Keylogger 2.9 Registration 56%
2009-10-22 23:48:49 Microsoft Registration Hacker - 39%
2009-10-22 23:49:57 SoudForge ALL (No Registration Requiered) 0%
2009-10-22 23:50:26 Valve's Registration Armor Key-Gen 60%
2011-09-08 10:21:42 Browserola v1.01 Temp. Registration 0%
2011-09-08 10:56:11 FontLook v3.1 Registration Code 51%
2011-09-08 11:31:51 Microsoft Registration Hacker 0%
2011-09-08 11:31:51 Microsoft Registration Hacker - 0%
2011-09-08 11:31:51 Microsoft Registration HackerMSREGHACK 0%
2011-09-08 11:32:07 Microstation v5.xx.xx & 95 FULL REGISTRATION 48%
2011-09-08 11:42:43 Nic O'Matic 1.6 Registration Code 50%
2011-09-08 11:42:43 Nic O'Matic v1.6 Registration Code 55%
2011-09-08 12:34:57 PolyTrans V1.2E Registration Activator CD-Key 62%
2011-09-08 12:34:57 PolyView v2.9b16 Registration 0%
2011-09-08 12:54:09 Time Registration (German) 1.10 0%
2011-09-08 12:59:30 Super Collapse Registration 100%
2011-09-08 13:23:15 Yipe! II for Windows Registration #154 0%
2012-12-13 08:49:53 Softwarenetz Time Registration v1.10 0%
2012-12-13 08:49:56 Softwarenetz Time Registration v1.14 0%
2012-12-13 15:34:10 Valve's Registration Armor Key-Gen 0%
2009-10-22 23:48:17 Internet Download Manager Registration 50%
2011-09-08 10:25:56 Cheyenne Bitware V4.0 Registration Number 60%
2011-09-08 11:31:51 Microsoft Registration Hacker MSREGHACK 80%
2011-09-08 11:31:51 Microsoft Visual Basic 5 registration cd key 72%
2011-09-08 12:54:14 TimeSlips 10.5 enterprise - with registration code! 0%
2012-12-12 08:07:32 Download avast 5.0.667 Antivirus registration 0%
2012-12-13 05:12:00 Registration Code For PDFZilla Giveaway 0%
2012-12-13 05:12:00 Registration key for x-3gp-video-converter-38540 54%
2012-12-13 13:12:40 Total Image Converter Registration Key 57%
2011-09-08 11:30:16 MediaBlaze 98 v1.01 Win95/NT User: delphic Registration 0%
2012-12-13 05:12:00 Registration code:-826510-16101-266644 51%
2009-10-22 23:49:02 Norton Internet Security 2005 Registration Guide 0%
2011-09-08 09:58:40 Acoustica Mixcraft v1.10 Build 15 Registration Info by MaBi 60%
2012-12-12 19:40:26 Microsoft Visual Basic 2008 Express Edition Registration key 55%
2009-10-22 23:27:28 AVG Anti-Virus Professional Edition 7.5 (full Version) Version 7.5.476 21-Jun-2007 100%
2012-12-12 19:30:48 Microsoft Office 2010 BETA Version (tested with german version) 10%
2009-10-22 23:48:37 LFP Manager 2004 French Version, Version Française 58%
2012-12-12 18:20:54 MAGIX Movie Edit 17 Plus Download Version Version 10.0.0.33 50%
2011-09-08 10:01:02 Advanced Call Recorder 1x. from 1.0 version to 2.0 version 56%
2009-10-22 23:46:28 Dr. Tag (any Version) 60%
2009-10-22 23:46:30 DVD-TO-AVI Version 2.0 73%
2009-10-22 23:48:00 Get Right 5.2d Version 0%
2009-10-22 23:49:20 PC-Duo Version 3.72 79%
2009-10-22 23:50:26 Version Cue CS 1.0 0%
2009-10-22 23:50:26 Version Cue CS2 2.0 0%
2009-10-22 23:50:26 Version: 7.0.1.321 0%
2011-09-08 09:49:52 A.S.C. Version: 4.1 0%
2011-09-08 10:06:48 AnF Version: 5.3.2.5 0%
2011-09-08 10:41:53 d'peg! Version: 2.3 0%
2011-09-08 10:41:53 d'peg! Version: 3.01 0%
2011-09-08 10:41:53 d'peg! Version: 4.1.5 0%
2011-09-08 10:41:53 d'peg! Version: 4.10 0%
2011-09-08 10:41:53 d'peg! Version: 4.12 100%
2011-09-08 10:44:13 DLL Spy Version: 1.0 0%
2011-09-08 10:44:13 DLL Spy Version: 1.1 0%
2011-09-08 10:44:13 DLL Spy Version: 1.2 0%
2011-09-08 10:44:13 DLL Spy Version: 1.3 0%
2011-09-08 10:44:13 DLL Spy Version: 1.4 0%
2011-09-08 10:44:13 DLL Spy Version: 1.5 0%
2011-09-08 10:53:52 FAR Version: 4.1.649 0%
2011-09-08 11:03:16 GP Version 5.0.8.8 0%
2011-09-08 11:03:16 GP Version v5.0.8.8 0%
2011-09-08 13:11:37 Version Cue CS (1.0) 0%
2011-09-08 13:11:37 Version Cue CS 1.0 0%
2011-09-08 13:11:37 Version Cue CS v1.0 0%
2011-09-08 13:11:37 Version: v1.0 67%
2011-09-08 13:11:37 Version: v1.1 0%
2011-09-08 13:11:37 Version: v1.5 90%
2011-09-08 13:11:37 Version: v2.0 54%
2011-09-08 13:11:37 Version: v2.00 0%
2011-09-08 13:11:37 Version: v4.0 57%
2011-09-08 13:11:37 Version: v4.0.0.2 0%
2011-09-08 13:11:37 Version: v5.0 0%
2011-09-08 13:11:37 Version: v5.0b2 0%
2011-09-08 13:11:37 Version: v5.11 100%
2011-09-08 13:11:37 Version: v6.0 0%
2011-09-08 13:11:37 Version: v8.0 NT 0%
2011-09-08 13:13:25 Vue Pro Any Version 0%
2011-09-08 13:22:33 XG Pad Version 1.63 0%
2012-12-12 13:40:36 GTA IV PC Version 0%
2009-10-17 06:32:20 Smart Version V2.00 0%
2009-10-23 07:01:26 4U WMA MP3 Converter Version 6.2.6 0%
2009-10-23 07:01:26 4U WMA MP3 Converter(Version 5.6.0) 0%
2009-10-22 23:27:13 Ad-aware (all Version) 51%
2009-10-22 23:27:25 Asusdvd Version 6.0 0%
2009-10-22 23:27:26 AutoShutdown Pro Version 5.0 0%
2009-10-22 23:44:51 Bookworm New Version 0%
2009-10-22 23:44:51 Bookworm Old Version 0%
2009-10-22 23:44:51 Bug Doctor (Last Version) 0%
2009-10-22 23:45:49 CallRecorder Version 1.01 47%
2009-10-22 23:45:52 ClipMate Version 6.0.0.1 0%
2009-10-22 23:45:53 ColorImpact Version 2.4.0 0%
2009-10-22 23:46:25 DaVideo 3 Version 3 0%
2009-10-22 23:46:27 DietMP3 Version 04.03.00 75%
2009-10-22 23:46:28 Doom 3 US Version 0%
2009-10-22 23:46:29 DSL Speed Version 2.02/3.1 0%
2009-10-22 23:47:40 Edit Plus Version 2.11 And Above 0%
2009-10-22 23:47:41 Emu8086 Version 3.22 0%
2009-10-22 23:47:52 FlashFXP Version 3.02 0%
2009-10-22 23:47:52 FlashFXP Version 3.4.0 0%
2009-10-22 23:47:53 Forms To Go All Version - By HNG 65 0%
2009-10-22 23:48:00 Getright 6.1 Pro Version 0%
2009-10-22 23:48:00 Global War (for Any Version) 0%
2009-10-22 23:48:06 Hamachi 1.2 NEW And Last Version 0%
2009-10-22 23:48:08 Hollywood FX Version 4.6.2 (26) 0%
2009-10-22 23:48:08 Hollywood FX-version 4.6.10(37) 11%
2009-10-22 23:48:37 Leap FTP All Version 0%
2009-10-22 23:48:47 Medcalc Version 7.0.1.0 0%
2009-10-22 23:48:50 Mirc All Version 0%
2009-10-22 23:48:50 Mks Vir Universal Key ALL Version 72%
2009-10-22 23:48:51 Mp3 Cd Burner Version : 3.01 0%
2009-10-22 23:48:53 MusicMatch 10 Or Any Version 0%
2009-10-22 23:48:59 Nero 5.5.9.9 (Oem Version) 0%
2009-10-22 23:48:59 Nero Version 5.5 0%
2009-10-22 23:49:02 Norton 360 Version 2.0 0%
2009-10-22 23:49:12 OJOsoft (ANY VERSION) 0%
2009-10-22 23:49:12 OmniPage SE Version 4,0 72%
2009-10-22 23:49:19 PageWhiz Version 3 0%
2009-10-22 23:49:22 PhotoShop CS4 Version 11 0%
2009-10-22 23:49:23 Picasa Version 1.5 0%
2009-10-22 23:49:24 PokemonDIamon Version 0%
2009-10-22 23:49:25 Power2go Version 3.0 0%
2009-10-22 23:49:26 PowerDVD 7.0 Version MAX 0%
2009-10-22 23:49:26 PowerDVD 8.0 Version MAX 0%
2009-10-22 23:49:26 PowerDVD 8.0 Version MAX 0%
2009-10-22 23:49:26 PowerISO ANY VERSION 0%
2009-10-22 23:49:27 Protector Plus All Version 0%
2009-10-22 23:49:27 Protector Plus All Version 0%
2009-10-22 23:49:34 QuarkXpress Version 8 0%
2009-10-22 23:49:41 RamDisk Version 9.0.1.0 0%
2009-10-22 23:49:42 RegCure Version 1.5.0.0 40%
2009-10-22 23:49:51 Safelogon Version 2.0.0.0 0%
2009-10-22 23:49:51 Scan2CAD Pro Version 7.2c 52%
2009-10-22 23:49:51 ScanToPDF Version 3.1.4.0 20%
2009-10-22 23:49:52 Serial2000 - Version 7.1 0%
2009-10-22 23:49:52 SF-Dienstplan Version 3.03 78%
2009-10-22 23:49:53 ShopFactory Version 6 0%
2009-10-22 23:49:53 SIO V1.45 16 Port Version 1.45.46 Port Version 0%
2009-10-22 23:49:54 Smart Version 2.00 0%
2009-10-22 23:49:55 Solarwinds Version 5.5 0%
2009-10-22 23:49:59 SpyWiper Version 2.0 0%
2009-10-22 23:50:00 Studio Version 8 0%